Location: Dunedin
(45.8900°S, 170.5000°E)
Time: 00:23:29
(UTC+13:00)

ISS - Visible Passes

Search period start: 30 November 2022 00:00
Search period end: 10 December 2022 00:00
Orbit: 411 x 420 km, 51.6° (Epoch: 29 November)

Date Brightness Start Highest point End Pass type
(mag) Time Alt. Az. Time Alt. Az. Time Alt. Az.
30 Nov -2.6 03:25:23 28° NNE 03:25:35 29° NE 03:28:35 10° ESE visible
30 Nov -3.2 04:58:47 10° WNW 05:02:10 56° SSW 05:05:35 10° ESE visible
01 Dec -1.4 02:38:18 15° ENE 02:38:18 15° ENE 02:39:27 10° E visible
01 Dec -3.7 04:11:10 20° WNW 04:13:24 80° SSW 04:16:52 10° ESE visible
02 Dec -3.8 03:24:01 51° NNW 03:24:41 68° NNE 03:28:06 10° ESE visible
02 Dec -2.3 04:58:23 10° W 05:01:36 36° SSW 05:04:50 10° ESE visible
03 Dec -2.7 02:36:47 35° ENE 02:36:47 35° ENE 02:39:14 10° ESE visible
03 Dec -2.7 04:09:38 11° W 04:12:43 44° SSW 04:16:03 10° ESE visible
04 Dec -1.2 01:49:29 14° E 01:49:29 14° E 01:50:13 10° E visible
04 Dec -3.3 03:22:20 29° W 03:23:50 60° SSW 03:27:15 10° ESE visible
04 Dec -1.9 04:57:55 10° WSW 05:01:00 30° S 05:04:06 10° ESE visible
05 Dec -3.8 02:34:57 85° WSW 02:34:59 86° SSW 02:38:26 10° ESE visible
05 Dec -2.0 04:08:53 10° WSW 04:12:01 32° S 04:15:11 10° ESE visible
06 Dec -2.4 01:47:27 33° E 01:47:27 33° E 01:49:33 10° ESE visible
06 Dec -2.3 03:20:17 13° W 03:23:02 37° SSW 03:26:16 10° ESE visible
06 Dec -1.8 04:57:11 10° WSW 05:00:19 31° S 05:03:26 10° ESE visible
07 Dec -1.3 00:59:52 15° ESE 00:59:52 15° ESE 01:00:33 10° ESE visible
07 Dec -2.8 02:32:41 29° WSW 02:34:02 47° SSW 02:37:23 10° ESE visible
07 Dec -1.7 04:08:11 10° WSW 04:11:16 30° S 04:14:21 10° ESE visible
08 Dec -3.4 01:44:55 63° SW 01:45:03 64° SSW 01:48:29 10° ESE visible
08 Dec -1.8 03:19:06 10° WSW 03:22:11 30° S 03:25:17 10° ESE visible
08 Dec -2.2 04:56:10 10° WSW 04:59:27 41° SSE 05:02:44 10° E visible
09 Dec -3.2 00:56:54 50° ESE 00:56:54 50° ESE 00:59:32 10° ESE visible
09 Dec -2.0 02:29:57 10° WSW 02:33:06 33° S 02:36:15 10° ESE visible
09 Dec -1.9 04:07:12 10° WSW 04:10:23 34° S 04:13:34 10° ESE visible
